Pittsburg, KS

2:15 PM CDT on September 19, 2017 (GMT -0500)
Atkinson Municipal

Weather History for KPTS - November, 2012

Change the Weather History Date:

Friday, November 16, 2012

  Actual Average (KJLN) Record (KJLN)
Temperature  
Mean Temperature 46 °F -  
Max Temperature 61 °F 55 °F 82 °F (2016)
Min Temperature 31 °F 36 °F 14 °F (1959)
Degree Days  
Heating Degree Days 19    
Moisture  
Dew Point 35 °F    
Average Humidity 72    
Maximum Humidity 100    
Minimum Humidity 35    
Precipitation  
Precipitation 0.00 in - - ()
Sea Level Pressure  
Sea Level Pressure 30.39 in    
Wind  
Wind Speed 0 mph (SE)    
Max Wind Speed 6 mph    
Max Gust Speed -    
Visibility 10 miles    
Events      
Averages and records for this station are not official NWS values.
T = Trace of Precipitation, MM = Missing Value Source: NWS Daily Summary

Daily Weather History Graph

Daily Weather History Graph

Search for Another Location

Airport or City:

Trip Planner

Search our weather history database for the weather conditions in past years. The results will help you decide how hot, cold, wet, or windy it might be!

Date:

Astronomy

Nov. 16, 2012 Rise Set
Actual Time 7:00 AM CST 5:07 PM CST
Civil Twilight 6:32 AM CST 5:35 PM CST
Nautical Twilight 6:00 AM CST 6:06 PM CST
Astronomical Twilight 5:29 AM CST 6:37 PM CST
Moon 9:54 AM CST (11/16) 8:08 PM CST (11/16)
Length of Visible Light 11h 03m
Length of Day
10h 07m
Waxing Crescent, 12% of the Moon is Illuminated
Nov 16
Waxing Crescent
Nov 20
First Quarter
Nov 28
Full
Dec 6
Last Quarter
Dec 13
New

Hourly Weather History & Observations

Time (CST) Temp. Windchill Dew Point Humidity Pressure Visibility Wind Dir Wind Speed Gust Speed Precip Events Conditions
12:15 AM 36.1 °F - 36.1 °F 100% 30.38 in - Calm Calm - N/A   Unknown
12:35 AM 35.6 °F - 35.8 °F 100% 30.38 in - Calm Calm - N/A   Unknown
12:55 AM 35.6 °F - 35.6 °F 100% 30.38 in - Calm Calm - N/A   Unknown
1:15 AM 35.6 °F - 35.6 °F 100% 30.37 in - Calm Calm - N/A   Unknown
1:35 AM 35.6 °F - 35.6 °F 100% 30.37 in - Calm Calm - N/A   Unknown
1:55 AM 35.6 °F - 35.6 °F 100% 30.38 in - Calm Calm - N/A   Unknown
2:15 AM 35.6 °F - 35.6 °F 100% 30.37 in - Calm Calm - N/A   Unknown
2:35 AM 33.6 °F - 33.6 °F 100% 30.38 in - Calm Calm - N/A   Unknown
2:55 AM 32.9 °F - 32.9 °F 100% 30.38 in - Calm Calm - N/A   Unknown
3:15 AM 32.9 °F - - N/A% 30.39 in - Calm Calm - N/A   Unknown
3:35 AM 32.9 °F - - N/A% 30.39 in - Calm Calm - N/A   Unknown
3:55 AM 32.9 °F - - N/A% 30.39 in - Calm Calm - N/A   Unknown
4:15 AM 33.4 °F - - N/A% 30.39 in - Calm Calm - N/A   Unknown
4:35 AM 32.7 °F - 32.7 °F 100% 30.39 in - Calm Calm - N/A   Unknown
4:55 AM 32.4 °F - 32.4 °F 100% 30.39 in - Calm Calm - N/A   Unknown
5:15 AM 32.7 °F - - N/A% 30.39 in - Calm Calm - N/A   Unknown
5:35 AM 32.2 °F - 32.2 °F 100% 30.39 in - Calm Calm - N/A   Unknown
6:15 AM - - - N/A% 30.39 in - Calm Calm - N/A   Unknown
6:35 AM 31.1 °F - - N/A% 30.39 in - Calm Calm - N/A   Unknown
6:55 AM 31.3 °F - - N/A% 30.40 in - Calm Calm - N/A   Unknown
7:15 AM 31.8 °F - - N/A% 30.41 in - Calm Calm - N/A   Unknown
7:35 AM 31.8 °F - 31.8 °F 100% 30.42 in - Calm Calm - N/A   Unknown
7:55 AM 32.5 °F - 32.5 °F 100% 30.42 in - Calm Calm - N/A   Unknown
8:15 AM 35.2 °F - 35.2 °F 100% 30.42 in - Calm Calm - N/A   Unknown
8:35 AM 38.8 °F - 39.0 °F 100% 30.42 in - Calm Calm - N/A   Unknown
8:55 AM 41.7 °F - 40.3 °F 95% 30.42 in - Calm Calm - N/A   Unknown
9:15 AM 45.0 °F - 39.7 °F 82% 30.43 in - Calm Calm - N/A   Clear
9:35 AM 49.8 °F - 39.9 °F 69% 30.43 in - Calm Calm - N/A   Clear
9:55 AM 50.9 °F - 37.8 °F 61% 30.44 in - Calm Calm - N/A   Clear
10:15 AM 53.1 °F - 37.8 °F 56% 30.44 in - Calm Calm - N/A   Clear
10:35 AM 55.8 °F - 37.9 °F 51% 30.44 in - Calm Calm - N/A   Clear
10:55 AM 55.8 °F - 36.0 °F 47% 30.44 in - Calm Calm - N/A   Clear
11:15 AM 57.2 °F - 35.8 °F 45% 30.43 in - SW 3.5 mph - N/A   Clear
11:35 AM 58.3 °F - 35.1 °F 42% 30.42 in - Calm Calm - N/A   Clear
11:55 AM 58.3 °F - 34.9 °F 41% 30.42 in - Calm Calm - N/A   Clear
12:15 PM 58.3 °F - 34.5 °F 41% 30.41 in - Calm Calm - N/A   Clear
12:35 PM 58.6 °F - 34.0 °F 40% 30.40 in - Calm Calm - N/A   Clear
12:55 PM 60.4 °F - 34.9 °F 38% 30.39 in - Calm Calm - N/A   Clear
1:15 PM 60.8 °F - 34.5 °F 37% 30.38 in - Calm Calm - N/A   Clear
1:35 PM 60.8 °F - 34.2 °F 37% 30.37 in - Calm Calm - N/A   Clear
1:55 PM 60.8 °F - 33.4 °F 36% 30.37 in - Calm Calm - N/A   Clear
2:15 PM 60.8 °F - 33.8 °F 36% 30.37 in - ESE 3.5 mph - N/A   Clear
2:35 PM 60.8 °F - 33.8 °F 36% 30.36 in - Calm Calm - N/A   Clear
2:55 PM 61.0 °F - 33.4 °F 36% 30.36 in - Calm Calm - N/A   Clear
3:15 PM 60.8 °F - 32.7 °F 35% 30.36 in - ESE 4.6 mph - N/A   Clear
3:35 PM 60.8 °F - 32.5 °F 35% 30.36 in - South 5.8 mph - N/A   Clear
3:55 PM - - - N/A% - - North - - N/A   Unknown
4:15 PM 60.8 °F - 34.2 °F 37% 30.37 in - Calm Calm - N/A   Unknown
4:35 PM 59.5 °F - 34.7 °F 39% 30.36 in - SE 3.5 mph - N/A   Unknown
4:55 PM 58.3 °F - 35.6 °F 43% 30.36 in - Calm Calm - N/A   Unknown
5:15 PM 56.3 °F - 35.6 °F 46% 30.36 in 10.0 mi Calm Calm - N/A   Clear
5:35 PM 53.2 °F - 36.3 °F 53% 30.36 in 10.0 mi ESE 3.5 mph - N/A   Clear
5:55 PM 50.9 °F - 36.5 °F 58% 30.36 in 10.0 mi ESE 3.5 mph - N/A   Clear
6:15 PM 50.7 °F - 37.4 °F 60% 30.36 in 10.0 mi ESE 3.5 mph - N/A   Clear
6:35 PM 46.9 °F - 36.1 °F 66% 30.37 in 10.0 mi Calm Calm - N/A   Clear
6:55 PM 45.9 °F - 35.6 °F 67% 30.37 in 10.0 mi Calm Calm - N/A   Clear
7:15 PM 43.9 °F - 34.7 °F 70% 30.36 in 10.0 mi Calm Calm - N/A   Clear
7:55 PM 41.4 °F - 34.5 °F 77% 30.37 in 10.0 mi Calm Calm - N/A   Clear
8:15 PM 40.5 °F - 35.6 °F 83% 30.37 in 10.0 mi Calm Calm - N/A   Clear
8:35 PM 40.5 °F - 35.8 °F 83% 30.37 in 10.0 mi Calm Calm - N/A   Clear
8:55 PM 40.5 °F - 35.8 °F 83% 30.37 in 10.0 mi Calm Calm - N/A   Clear
9:15 PM 39.9 °F - 36.0 °F 86% 30.37 in 10.0 mi Calm Calm - N/A   Clear
9:35 PM 38.7 °F 36.3 °F 36.1 °F 91% 30.37 in 10.0 mi ESE 3.5 mph - N/A   Clear
9:55 PM 39.0 °F - 36.1 °F 89% 30.37 in 10.0 mi Calm Calm - N/A   Clear
10:15 PM 39.0 °F - 36.7 °F 91% 30.38 in 10.0 mi Calm Calm - N/A   Clear
10:35 PM 37.9 °F - 37.4 °F 98% 30.38 in 10.0 mi Calm Calm - N/A   Clear
10:55 PM 38.1 °F - 37.9 °F 99% 30.38 in 10.0 mi Calm Calm - N/A   Clear
11:15 PM 38.1 °F - 37.4 °F 97% 30.38 in 10.0 mi Calm Calm - N/A   Clear
11:35 PM 37.6 °F - 36.7 °F 97% 30.39 in 10.0 mi Calm Calm - N/A   Clear
11:55 PM 36.0 °F - 35.1 °F 97% 30.38 in 10.0 mi Calm Calm - N/A   Clear